Time,TemperatureF,DewpointF,PressureIn,WindDirection,WindDirectionDegrees,WindSpeedMPH,WindSpeedGustMPH,Humidity,HourlyPrecipIn,Conditions,Clouds,dailyrainin,SoftwareType,DateUTC
2013-04-01 00:00:00,45.5,33.7,29.74,SW,226,0.0,0.0,63,0.00,,---,0.00,VWS V14.01,2013-04-01 04:00:00,
2013-04-01 00:05:00,45.5,34.0,29.74,SW,226,0.0,0.0,64,0.00,,---,0.00,VWS V14.01,2013-04-01 04:05:00,
2013-04-01 00:10:00,45.3,33.9,29.74,SW,226,0.0,0.0,64,0.00,,---,0.00,VWS V14.01,2013-04-01 04:10:00,
2013-04-01 00:13:00,45.3,33.9,29.74,SW,226,0.0,0.0,64,0.00,,---,0.00,VWS V14.01,2013-04-01 04:13:00,
2013-04-01 00:18:00,45.3,33.9,29.74,SW,226,0.0,0.0,64,0.00,,---,0.00,VWS V14.01,2013-04-01 04:18:00,
2013-04-01 00:23:00,45.1,33.7,29.74,SW,226,0.0,0.0,64,0.00,,---,0.00,VWS V14.01,2013-04-01 04:23:00,
2013-04-01 00:28:00,45.1,33.7,29.74,SW,226,0.0,0.0,64,0.00,,---,0.00,VWS V14.01,2013-04-01 04:28:00,
2013-04-01 00:33:00,45.3,33.9,29.74,SSW,197,2.7,2.7,64,0.00,,---,0.00,VWS V14.01,2013-04-01 04:33:00,
2013-04-01 00:38:00,45.5,33.7,29.74,ENE,68,0.0,0.0,63,0.00,,---,0.00,VWS V14.01,2013-04-01 04:38:00,
2013-04-01 00:43:00,45.3,33.1,29.77,ENE,62,0.0,0.0,62,0.00,,---,0.00,VWS V14.01,2013-04-01 04:43:00,
2013-04-01 00:48:00,45.5,30.3,29.77,SSW,206,2.7,3.6,55,0.00,,---,0.00,VWS V14.01,2013-04-01 04:48:00,
2013-04-01 00:53:00,45.5,28.4,29.77,ENE,76,3.6,5.4,51,0.00,,---,0.00,VWS V14.01,2013-04-01 04:53:00,
2013-04-01 00:58:00,45.9,27.8,29.77,ENE,75,0.0,0.0,49,0.00,,---,0.00,VWS V14.01,2013-04-01 04:58:00,
2013-04-01 01:03:00,45.5,28.0,29.77,SE,141,2.7,2.7,50,0.00,,---,0.00,VWS V14.01,2013-04-01 05:03:00,
2013-04-01 01:08:00,45.1,27.6,29.77,SW,229,0.0,0.0,50,0.00,,---,0.00,VWS V14.01,2013-04-01 05:08:00,
2013-04-01 01:13:00,44.2,27.3,29.77,ESE,111,0.0,0.0,51,0.00,,---,0.00,VWS V14.01,2013-04-01 05:13:00,
2013-04-01 01:18:00,43.5,27.1,29.77,SW,233,2.2,3.1,52,0.00,,---,0.00,VWS V14.01,2013-04-01 05:18:00,
2013-04-01 01:23:00,43.0,27.0,29.77,West,274,0.0,0.0,53,0.00,,---,0.00,VWS V14.01,2013-04-01 05:23:00,
2013-04-01 01:28:00,42.4,27.0,29.77,WNW,295,0.0,0.0,54,0.00,,---,0.00,VWS V14.01,2013-04-01 05:28:00,
2013-04-01 01:33:00,41.9,26.5,29.77,NE,37,2.7,2.7,54,0.00,,---,0.00,VWS V14.01,2013-04-01 05:33:00,
2013-04-01 01:38:00,41.5,27.0,29.77,NE,39,0.0,2.7,56,0.00,,---,0.00,VWS V14.01,2013-04-01 05:38:00,
2013-04-01 01:43:00,41.5,27.5,29.77,NE,34,0.0,0.0,57,0.00,,---,0.00,VWS V14.01,2013-04-01 05:43:00,
2013-04-01 01:48:00,41.4,27.3,29.77,NE,38,0.0,0.0,57,0.00,,---,0.00,VWS V14.01,2013-04-01 05:48:00,
2013-04-01 01:53:00,41.0,27.4,29.77,NE,38,0.0,0.0,58,0.00,,---,0.00,VWS V14.01,2013-04-01 05:53:00,
2013-04-01 01:58:00,40.6,27.5,29.77,NE,39,2.7,2.7,59,0.00,,---,0.00,VWS V14.01,2013-04-01 05:58:00,
2013-04-01 02:03:00,40.3,27.1,29.77,NE,39,0.0,2.2,59,0.00,,---,0.00,VWS V14.01,2013-04-01 06:03:00,
2013-04-01 02:08:00,40.1,27.8,29.77,NE,39,0.0,0.0,61,0.00,,---,0.00,VWS V14.01,2013-04-01 06:08:00,
2013-04-01 02:14:00,40.1,27.8,29.77,NNE,30,0.0,0.0,61,0.00,,---,0.00,VWS V14.01,2013-04-01 06:14:00,
2013-04-01 02:19:00,40.5,28.5,29.77,NE,40,2.7,2.7,62,0.00,,---,0.00,VWS V14.01,2013-04-01 06:19:00,
2013-04-01 02:24:00,40.3,28.3,29.77,NE,40,0.0,2.7,62,0.00,,---,0.00,VWS V14.01,2013-04-01 06:24:00,
2013-04-01 02:29:00,40.3,28.3,29.77,NE,40,0.0,0.0,62,0.00,,---,0.00,VWS V14.01,2013-04-01 06:29:00,
2013-04-01 02:34:00,40.1,28.1,29.77,NE,40,3.1,3.1,62,0.00,,---,0.00,VWS V14.01,2013-04-01 06:34:00,
2013-04-01 02:39:00,39.9,28.0,29.77,NE,40,2.2,2.7,62,0.00,,---,0.00,VWS V14.01,2013-04-01 06:39:00,
2013-04-01 02:44:00,39.7,28.2,29.77,NE,40,0.0,0.0,63,0.00,,---,0.00,VWS V14.01,2013-04-01 06:44:00,
2013-04-01 02:49:00,39.7,28.6,29.77,NE,45,0.0,0.0,64,0.00,,---,0.00,VWS V14.01,2013-04-01 06:49:00,
2013-04-01 02:54:00,39.7,28.6,29.77,NE,45,0.0,0.0,64,0.00,,---,0.00,VWS V14.01,2013-04-01 06:54:00,
2013-04-01 02:59:00,39.7,29.3,29.77,ESE,109,0.0,3.1,66,0.00,,---,0.00,VWS V14.01,2013-04-01 06:59:00,
2013-04-01 03:04:00,39.9,29.9,29.77,North,357,2.2,2.2,67,0.00,,---,0.00,VWS V14.01,2013-04-01 07:04:00,
2013-04-01 03:09:00,40.5,30.4,29.77,ENE,71,3.1,3.6,67,0.00,,---,0.00,VWS V14.01,2013-04-01 07:09:00,
2013-04-01 03:14:00,41.0,31.3,29.77,West,269,0.0,2.7,68,0.00,,---,0.00,VWS V14.01,2013-04-01 07:14:00,
2013-04-01 03:19:00,41.5,31.4,29.77,NNW,344,0.0,0.0,67,0.00,,---,0.00,VWS V14.01,2013-04-01 07:19:00,
2013-04-01 03:24:00,41.4,30.5,29.77,North,353,0.0,0.0,65,0.00,,---,0.00,VWS V14.01,2013-04-01 07:24:00,
2013-04-01 03:29:00,41.4,30.1,29.77,SE,129,2.2,3.1,64,0.00,,---,0.00,VWS V14.01,2013-04-01 07:29:00,
2013-04-01 03:34:00,41.2,29.9,29.77,SE,125,0.0,0.0,64,0.00,,---,0.00,VWS V14.01,2013-04-01 07:34:00,
2013-04-01 03:39:00,40.6,29.0,29.77,SE,125,0.0,0.0,63,0.00,,---,0.00,VWS V14.01,2013-04-01 07:39:00,
2013-04-01 03:44:00,40.3,29.1,29.77,SE,125,0.0,0.0,64,0.00,,---,0.00,VWS V14.01,2013-04-01 07:44:00,
2013-04-01 03:49:00,39.9,29.1,29.77,SSW,212,2.2,3.6,65,0.00,,---,0.00,VWS V14.01,2013-04-01 07:49:00,
2013-04-01 03:54:00,40.3,29.8,29.77,SW,233,0.0,2.7,66,0.00,,---,0.00,VWS V14.01,2013-04-01 07:54:00,
2013-04-01 04:00:00,40.8,31.1,29.77,ESE,116,0.0,0.0,68,0.00,,---,0.00,VWS V14.01,2013-04-01 08:00:00,
2013-04-01 04:05:00,40.8,31.1,29.77,ESE,116,0.0,0.0,68,0.00,,---,0.00,VWS V14.01,2013-04-01 08:05:00,
2013-04-01 04:10:00,40.8,30.7,29.77,SE,142,0.0,0.0,67,0.00,,---,0.00,VWS V14.01,2013-04-01 08:10:00,
2013-04-01 04:15:00,40.8,30.7,29.74,South,174,0.0,0.0,67,0.00,,---,0.00,VWS V14.01,2013-04-01 08:15:00,
2013-04-01 04:20:00,40.6,30.5,29.74,SSE,156,0.0,0.0,67,0.00,,---,0.00,VWS V14.01,2013-04-01 08:20:00,
2013-04-01 04:25:00,40.3,30.2,29.74,SE,133,2.2,2.2,67,0.00,,---,0.00,VWS V14.01,2013-04-01 08:25:00,
2013-04-01 04:30:00,40.3,30.2,29.74,SE,133,0.0,0.0,67,0.00,,---,0.00,VWS V14.01,2013-04-01 08:30:00,
2013-04-01 04:35:00,39.9,29.9,29.74,SE,133,0.0,0.0,67,0.00,,---,0.00,VWS V14.01,2013-04-01 08:35:00,
2013-04-01 04:40:00,39.9,30.2,29.74,SW,220,0.0,0.0,68,0.00,,---,0.00,VWS V14.01,2013-04-01 08:40:00,
2013-04-01 04:45:00,40.1,30.8,29.74,NNE,27,0.0,0.0,69,0.00,,---,0.00,VWS V14.01,2013-04-01 08:45:00,
2013-04-01 04:50:00,40.1,30.8,29.74,North,353,0.0,2.7,69,0.00,,---,0.00,VWS V14.01,2013-04-01 08:50:00,
2013-04-01 04:55:00,39.9,30.6,29.74,North,357,0.0,0.0,69,0.00,,---,0.00,VWS V14.01,2013-04-01 08:55:00,
2013-04-01 05:00:00,40.5,31.5,29.74,WSW,254,0.0,0.0,70,0.00,,---,0.00,VWS V14.01,2013-04-01 09:00:00,
2013-04-01 05:05:00,41.0,32.3,29.74,SSE,165,0.0,0.0,71,0.00,,---,0.00,VWS V14.01,2013-04-01 09:05:00,
2013-04-01 05:10:00,41.7,33.0,29.74,West,260,4.0,5.4,71,0.00,,---,0.00,VWS V14.01,2013-04-01 09:10:00,
2013-04-01 05:15:00,42.4,33.4,29.74,WSW,244,3.1,3.1,70,0.00,,---,0.00,VWS V14.01,2013-04-01 09:15:00,
2013-04-01 05:21:00,42.8,33.0,29.74,SW,227,0.0,0.0,68,0.00,,---,0.00,VWS V14.01,2013-04-01 09:21:00,
2013-04-01 05:26:00,42.8,32.6,29.74,SW,227,0.0,0.0,67,0.00,,---,0.00,VWS V14.01,2013-04-01 09:26:00,
2013-04-01 05:31:00,42.4,31.9,29.74,SW,227,0.0,0.0,66,0.00,,---,0.00,VWS V14.01,2013-04-01 09:31:00,
2013-04-01 05:36:00,42.1,31.2,29.74,SW,227,0.0,0.0,65,0.00,,---,0.00,VWS V14.01,2013-04-01 09:36:00,
2013-04-01 05:41:00,41.7,30.8,29.74,SW,227,0.0,0.0,65,0.00,,---,0.00,VWS V14.01,2013-04-01 09:41:00,
2013-04-01 05:46:00,41.5,30.7,29.74,SW,220,0.0,0.0,65,0.00,,---,0.00,VWS V14.01,2013-04-01 09:46:00,
2013-04-01 05:51:00,41.2,30.3,29.74,SW,220,0.0,0.0,65,0.00,,---,0.00,VWS V14.01,2013-04-01 09:51:00,
2013-04-01 05:56:00,41.0,30.5,29.74,SE,141,0.0,2.2,66,0.00,,---,0.00,VWS V14.01,2013-04-01 09:56:00,
2013-04-01 06:01:00,41.0,30.5,29.74,ESE,113,0.0,0.0,66,0.00,,---,0.00,VWS V14.01,2013-04-01 10:01:00,
2013-04-01 06:06:00,41.0,31.3,29.74,WSW,256,6.3,6.3,68,0.00,,---,0.00,VWS V14.01,2013-04-01 10:06:00,
2013-04-01 06:11:00,41.5,31.8,29.74,East,92,0.0,2.7,68,0.00,,---,0.00,VWS V14.01,2013-04-01 10:11:00,
2013-04-01 06:16:00,41.5,31.8,29.74,WNW,295,0.0,0.0,68,0.00,,---,0.00,VWS V14.01,2013-04-01 10:16:00,
2013-04-01 06:21:00,41.7,32.0,29.74,WSW,252,2.7,3.6,68,0.00,,---,0.00,VWS V14.01,2013-04-01 10:21:00,
2013-04-01 06:26:00,42.1,32.3,29.74,WSW,247,0.0,2.7,68,0.00,,---,0.00,VWS V14.01,2013-04-01 10:26:00,
2013-04-01 06:31:00,42.4,32.3,29.74,SW,222,0.0,3.1,67,0.00,,---,0.00,VWS V14.01,2013-04-01 10:31:00,
2013-04-01 06:36:00,42.4,31.9,29.74,SW,222,0.0,0.0,66,0.00,,---,0.00,VWS V14.01,2013-04-01 10:36:00,
2013-04-01 06:41:00,42.3,31.7,29.74,ESE,122,2.7,3.1,66,0.00,,---,0.00,VWS V14.01,2013-04-01 10:41:00,
2013-04-01 06:46:00,42.1,31.2,29.74,SW,215,3.1,3.6,65,0.00,,---,0.00,VWS V14.01,2013-04-01 10:46:00,
2013-04-01 06:51:00,41.7,30.5,29.74,SW,216,2.7,3.1,64,0.00,,---,0.00,VWS V14.01,2013-04-01 10:51:00,
2013-04-01 06:56:00,41.2,29.9,29.77,SW,214,0.0,0.0,64,0.00,,---,0.00,VWS V14.01,2013-04-01 10:56:00,
2013-04-01 07:01:00,40.6,29.8,29.77,SW,214,0.0,0.0,65,0.00,,---,0.00,VWS V14.01,2013-04-01 11:01:00,
2013-04-01 07:06:00,40.6,30.2,29.77,SE,126,0.0,0.0,66,0.00,,---,0.00,VWS V14.01,2013-04-01 11:06:00,
2013-04-01 07:11:00,40.6,30.9,29.77,SE,126,0.0,0.0,68,0.00,,---,0.00,VWS V14.01,2013-04-01 11:11:00,
2013-04-01 07:16:00,40.8,31.1,29.77,SE,126,0.0,0.0,68,0.00,,---,0.00,VWS V14.01,2013-04-01 11:16:00,
2013-04-01 07:21:00,41.0,31.6,29.77,SW,235,2.7,3.1,69,0.00,,---,0.00,VWS V14.01,2013-04-01 11:21:00,
2013-04-01 07:25:00,41.4,32.3,29.77,WSW,246,0.0,0.0,70,0.00,,---,0.00,VWS V14.01,2013-04-01 11:25:00,
2013-04-01 07:31:00,41.7,32.7,29.77,WSW,246,0.0,0.0,70,0.00,,---,0.00,VWS V14.01,2013-04-01 11:31:00,
2013-04-01 07:36:00,42.1,33.0,29.77,WSW,246,0.0,0.0,70,0.00,,---,0.00,VWS V14.01,2013-04-01 11:36:00,
2013-04-01 07:41:00,42.1,33.0,29.74,SW,229,2.2,2.7,70,0.00,,---,0.00,VWS V14.01,2013-04-01 11:41:00,
2013-04-01 07:46:00,42.3,32.8,29.74,SW,236,0.0,0.0,69,0.00,,---,0.00,VWS V14.01,2013-04-01 11:46:00,
2013-04-01 07:51:00,42.3,32.8,29.74,SSW,199,4.0,4.0,69,0.00,,---,0.00,VWS V14.01,2013-04-01 11:51:00,
2013-04-01 07:56:00,42.3,32.8,29.74,SSW,203,3.1,3.6,69,0.00,,---,0.00,VWS V14.01,2013-04-01 11:56:00,
2013-04-01 08:01:00,42.4,33.0,29.77,WSW,257,2.7,3.1,69,0.00,,---,0.00,VWS V14.01,2013-04-01 12:01:00,
2013-04-01 08:06:00,42.4,32.6,29.77,South,177,0.0,2.2,68,0.00,,---,0.00,VWS V14.01,2013-04-01 12:06:00,
2013-04-01 08:11:00,42.4,32.6,29.77,South,177,0.0,0.0,68,0.00,,---,0.00,VWS V14.01,2013-04-01 12:11:00,
2013-04-01 08:16:00,42.6,33.2,29.77,SW,236,0.0,2.2,69,0.00,,---,0.00,VWS V14.01,2013-04-01 12:16:00,
2013-04-01 08:21:00,42.6,33.2,29.77,WSW,249,0.0,0.0,69,0.00,,---,0.00,VWS V14.01,2013-04-01 12:21:00,
2013-04-01 08:26:00,42.8,33.3,29.77,WSW,242,3.1,4.9,69,0.00,,---,0.00,VWS V14.01,2013-04-01 12:26:00,
2013-04-01 08:31:00,43.2,34.0,29.77,SW,236,0.0,0.0,70,0.00,,---,0.00,VWS V14.01,2013-04-01 12:31:00,
2013-04-01 08:36:00,43.5,34.4,29.77,West,279,2.7,3.6,70,0.00,,---,0.00,VWS V14.01,2013-04-01 12:36:00,
2013-04-01 08:41:00,43.7,34.6,29.77,WSW,244,3.1,4.9,70,0.00,,---,0.00,VWS V14.01,2013-04-01 12:41:00,
2013-04-01 08:46:00,44.1,34.6,29.77,SSW,213,0.0,0.0,69,0.00,,---,0.00,VWS V14.01,2013-04-01 12:46:00,
2013-04-01 08:51:00,44.2,33.6,29.77,West,259,4.0,4.0,66,0.00,,---,0.00,VWS V14.01,2013-04-01 12:51:00,
2013-04-01 08:56:00,44.6,33.6,29.77,WSW,239,3.1,3.6,65,0.00,,---,0.00,VWS V14.01,2013-04-01 12:56:00,
2013-04-01 09:01:00,45.1,34.1,29.77,WSW,241,5.4,5.4,65,0.00,,---,0.00,VWS V14.01,2013-04-01 13:01:00,
2013-04-01 09:06:00,45.3,32.7,29.77,SW,223,5.4,5.8,61,0.00,,---,0.00,VWS V14.01,2013-04-01 13:06:00,
2013-04-01 09:11:00,45.5,32.8,29.77,SW,230,3.6,4.0,61,0.00,,---,0.00,VWS V14.01,2013-04-01 13:11:00,
2013-04-01 09:16:00,45.7,32.2,29.77,SW,214,0.0,6.3,59,0.00,,---,0.00,VWS V14.01,2013-04-01 13:16:00,
2013-04-01 09:21:00,45.9,31.5,29.77,WSW,245,5.8,5.8,57,0.00,,---,0.00,VWS V14.01,2013-04-01 13:21:00,
2013-04-01 09:26:00,45.9,31.5,29.77,West,266,3.1,4.9,57,0.00,,---,0.00,VWS V14.01,2013-04-01 13:26:00,
2013-04-01 09:31:00,45.7,31.8,29.77,SSW,212,3.1,3.6,58,0.00,,---,0.00,VWS V14.01,2013-04-01 13:31:00,
2013-04-01 09:36:00,45.7,32.6,29.77,WNW,295,2.7,3.6,60,0.00,,---,0.00,VWS V14.01,2013-04-01 13:36:00,
2013-04-01 09:41:00,45.7,33.0,29.77,West,260,5.4,5.4,61,0.00,,---,0.00,VWS V14.01,2013-04-01 13:41:00,
2013-04-01 09:46:00,45.9,32.8,29.77,SW,224,3.6,10.1,60,0.00,,---,0.00,VWS V14.01,2013-04-01 13:46:00,
2013-04-01 09:51:00,46.2,32.7,29.77,SSW,210,2.7,6.3,59,0.00,,---,0.00,VWS V14.01,2013-04-01 13:51:00,
2013-04-01 09:56:00,46.2,32.7,29.77,SSW,212,5.8,6.3,59,0.00,,---,0.00,VWS V14.01,2013-04-01 13:56:00,
2013-04-01 10:01:00,46.2,33.1,29.77,SSW,210,3.1,3.6,60,0.00,,---,0.00,VWS V14.01,2013-04-01 14:01:00,
2013-04-01 10:06:00,46.4,33.3,29.77,SSW,203,4.5,5.8,60,0.00,,---,0.00,VWS V14.01,2013-04-01 14:06:00,
2013-04-01 10:11:00,46.6,33.0,29.77,SW,236,2.2,2.7,59,0.00,,---,0.00,VWS V14.01,2013-04-01 14:11:00,
2013-04-01 10:16:00,46.4,32.9,29.77,WSW,238,2.7,4.0,59,0.00,,---,0.00,VWS V14.01,2013-04-01 14:16:00,
2013-04-01 10:21:00,46.2,32.7,29.77,SW,231,3.1,4.0,59,0.00,,---,0.00,VWS V14.01,2013-04-01 14:21:00,
2013-04-01 10:26:00,45.9,32.8,29.77,SSW,194,0.0,0.0,60,0.00,,---,0.00,VWS V14.01,2013-04-01 14:26:00,
2013-04-01 10:31:00,45.9,33.2,29.77,WNW,283,0.0,0.0,61,0.00,,---,0.00,VWS V14.01,2013-04-01 14:31:00,
2013-04-01 10:36:00,45.9,33.2,29.77,SSW,204,2.2,5.4,61,0.00,,---,0.00,VWS V14.01,2013-04-01 14:36:00,
2013-04-01 10:41:00,45.9,33.2,29.77,WSW,248,3.1,3.6,61,0.00,,---,0.00,VWS V14.01,2013-04-01 14:41:00,
2013-04-01 10:46:00,46.0,33.4,29.77,SW,231,0.0,0.0,61,0.00,,---,0.00,VWS V14.01,2013-04-01 14:46:00,
2013-04-01 10:51:00,46.0,33.8,29.77,WSW,252,3.1,3.1,62,0.00,,---,0.00,VWS V14.01,2013-04-01 14:51:00,
2013-04-01 10:56:00,46.0,34.2,29.77,WSW,251,4.0,5.8,63,0.00,,---,0.00,VWS V14.01,2013-04-01 14:56:00,
2013-04-01 11:01:00,46.2,34.7,29.77,SSE,164,2.7,5.8,64,0.00,,---,0.00,VWS V14.01,2013-04-01 15:01:00,
2013-04-01 11:06:00,46.6,34.3,29.77,WSW,237,6.3,6.7,62,0.00,,---,0.00,VWS V14.01,2013-04-01 15:06:00,
2013-04-01 11:11:00,47.1,33.1,29.77,SW,235,5.8,7.6,58,0.00,,---,0.00,VWS V14.01,2013-04-01 15:11:00,
2013-04-01 11:16:00,47.7,33.2,29.77,SW,219,3.6,10.5,57,0.00,,---,0.00,VWS V14.01,2013-04-01 15:16:00,
2013-04-01 11:21:00,48.0,32.2,29.77,SW,217,5.8,6.3,54,0.00,,---,0.00,VWS V14.01,2013-04-01 15:21:00,
2013-04-01 11:26:00,48.7,31.4,29.77,SSW,202,8.3,8.3,51,0.00,,---,0.00,VWS V14.01,2013-04-01 15:26:00,
2013-04-01 11:31:00,48.9,31.6,29.77,SSW,213,4.9,4.9,51,0.00,,---,0.00,VWS V14.01,2013-04-01 15:31:00,
2013-04-01 11:36:00,48.7,30.5,29.77,SW,230,7.6,8.7,49,0.00,,---,0.00,VWS V14.01,2013-04-01 15:36:00,
2013-04-01 11:41:00,48.6,30.8,29.77,WSW,248,6.3,6.3,50,0.00,,---,0.00,VWS V14.01,2013-04-01 15:41:00,
2013-04-01 11:46:00,48.2,30.5,29.77,SW,220,5.4,6.7,50,0.00,,---,0.00,VWS V14.01,2013-04-01 15:46:00,
2013-04-01 11:51:00,47.8,31.1,29.77,SSW,199,4.0,4.0,52,0.00,,---,0.00,VWS V14.01,2013-04-01 15:51:00,
2013-04-01 11:56:00,47.5,31.2,29.77,SW,217,5.8,6.7,53,0.00,,---,0.00,VWS V14.01,2013-04-01 15:56:00,
2013-04-01 12:01:00,47.3,31.0,29.77,WSW,247,3.6,4.0,53,0.00,,---,0.00,VWS V14.01,2013-04-01 16:01:00,
2013-04-01 12:06:00,46.9,32.5,29.77,WSW,249,4.0,4.0,57,0.04,,---,0.04,VWS V14.01,2013-04-01 16:06:00,
2013-04-01 12:11:00,46.2,33.1,29.77,WSW,243,2.2,5.8,60,0.04,,---,0.04,VWS V14.01,2013-04-01 16:11:00,
2013-04-01 12:16:00,45.9,34.0,29.77,South,177,2.2,3.6,63,0.04,,---,0.04,VWS V14.01,2013-04-01 16:16:00,
2013-04-01 12:21:00,45.9,34.4,29.77,East,100,4.0,4.0,64,0.04,,---,0.04,VWS V14.01,2013-04-01 16:21:00,
2013-04-01 12:27:00,45.9,33.6,29.77,South,191,3.6,4.0,62,0.04,,---,0.04,VWS V14.01,2013-04-01 16:27:00,
2013-04-01 12:32:00,45.9,32.8,29.77,SSW,200,0.0,0.0,60,0.04,,---,0.04,VWS V14.01,2013-04-01 16:32:00,
2013-04-01 12:37:00,46.2,33.5,29.77,South,182,4.9,4.9,61,0.04,,---,0.04,VWS V14.01,2013-04-01 16:37:00,
2013-04-01 12:42:00,46.4,32.0,29.77,SW,217,4.0,6.3,57,0.04,,---,0.04,VWS V14.01,2013-04-01 16:42:00,
2013-04-01 12:47:00,46.9,32.5,29.77,WSW,237,5.8,8.7,57,0.04,,---,0.04,VWS V14.01,2013-04-01 16:47:00,
2013-04-01 12:52:00,46.9,29.8,29.77,SW,235,3.6,8.7,51,0.04,,---,0.04,VWS V14.01,2013-04-01 16:52:00,
2013-04-01 12:57:00,46.9,29.3,29.77,SW,223,4.9,5.4,50,0.04,,---,0.04,VWS V14.01,2013-04-01 16:57:00,
2013-04-01 13:02:00,46.9,30.2,29.77,SSW,196,8.1,8.1,52,0.04,,---,0.04,VWS V14.01,2013-04-01 17:02:00,
2013-04-01 13:07:00,46.9,29.3,29.77,SSW,199,5.8,8.7,50,0.00,,---,0.04,VWS V14.01,2013-04-01 17:07:00,
2013-04-01 13:13:00,46.8,29.1,29.77,WSW,243,2.2,4.0,50,0.00,,---,0.04,VWS V14.01,2013-04-01 17:13:00,
2013-04-01 13:18:00,46.8,29.1,29.77,ESE,118,2.7,2.7,50,0.00,,---,0.04,VWS V14.01,2013-04-01 17:18:00,
2013-04-01 13:23:00,46.2,28.1,29.77,ESE,106,4.0,4.0,49,0.00,,---,0.04,VWS V14.01,2013-04-01 17:23:00,
2013-04-01 13:28:00,46.0,27.5,29.80,SSW,213,6.3,8.1,48,0.00,,---,0.04,VWS V14.01,2013-04-01 17:28:00,
2013-04-01 13:33:00,45.9,26.3,29.80,SSW,213,6.3,6.7,46,0.00,,---,0.04,VWS V14.01,2013-04-01 17:33:00,
2013-04-01 13:38:00,45.9,26.8,29.80,SSW,200,6.3,8.1,47,0.00,,---,0.04,VWS V14.01,2013-04-01 17:38:00,
2013-04-01 13:43:00,45.9,25.2,29.80,South,172,11.0,11.0,44,0.00,,---,0.04,VWS V14.01,2013-04-01 17:43:00,
2013-04-01 13:48:00,45.9,24.1,29.80,East,98,4.0,4.0,42,0.00,,---,0.04,VWS V14.01,2013-04-01 17:48:00,
2013-04-01 13:53:00,46.0,22.5,29.80,SW,229,8.1,12.3,39,0.00,,---,0.04,VWS V14.01,2013-04-01 17:53:00,
2013-04-01 13:58:00,46.4,22.2,29.80,South,172,5.8,10.1,38,0.00,,---,0.04,VWS V14.01,2013-04-01 17:58:00,
2013-04-01 14:03:00,46.9,23.3,29.80,South,184,6.3,6.3,39,0.00,,---,0.04,VWS V14.01,2013-04-01 18:03:00,
2013-04-01 14:08:00,47.1,22.8,29.80,WSW,250,6.3,6.3,38,0.00,,---,0.04,VWS V14.01,2013-04-01 18:08:00,
2013-04-01 14:13:00,47.3,23.6,29.77,WSW,238,7.2,8.1,39,0.00,,---,0.04,VWS V14.01,2013-04-01 18:13:00,
2013-04-01 14:18:00,48.0,23.0,29.77,SSW,203,13.2,13.2,37,0.00,,---,0.04,VWS V14.01,2013-04-01 18:18:00,
2013-04-01 14:23:00,48.6,24.1,29.77,SSE,165,8.7,8.7,38,0.00,,---,0.04,VWS V14.01,2013-04-01 18:23:00,
2013-04-01 14:28:00,48.9,23.8,29.77,SSE,163,4.9,9.6,37,0.00,,---,0.04,VWS V14.01,2013-04-01 18:28:00,
2013-04-01 14:33:00,49.3,23.5,29.77,SSW,193,5.8,13.2,36,0.00,,---,0.04,VWS V14.01,2013-04-01 18:33:00,
2013-04-01 14:38:00,49.5,24.3,29.77,SSW,213,6.3,6.3,37,0.00,,---,0.04,VWS V14.01,2013-04-01 18:38:00,
2013-04-01 14:43:00,49.5,23.6,29.77,WSW,245,3.1,5.8,36,0.00,,---,0.04,VWS V14.01,2013-04-01 18:43:00,
2013-04-01 14:48:00,49.3,23.5,29.77,South,173,3.1,6.3,36,0.00,,---,0.04,VWS V14.01,2013-04-01 18:48:00,
2013-04-01 14:53:00,49.3,24.1,29.77,South,181,6.3,6.7,37,0.00,,---,0.04,VWS V14.01,2013-04-01 18:53:00,
2013-04-01 14:59:00,49.1,23.3,29.77,SSW,196,8.3,10.1,36,0.00,,---,0.04,VWS V14.01,2013-04-01 18:59:00,
2013-04-01 15:04:00,48.6,22.2,29.77,WSW,248,13.6,17.9,35,0.00,,---,0.04,VWS V14.01,2013-04-01 19:04:00,
2013-04-01 15:09:00,48.2,22.5,29.77,South,174,8.1,8.1,36,0.00,,---,0.04,VWS V14.01,2013-04-01 19:09:00,
2013-04-01 15:14:00,48.4,22.7,29.77,South,171,5.4,8.7,36,0.00,,---,0.04,VWS V14.01,2013-04-01 19:14:00,
2013-04-01 15:19:00,48.2,22.5,29.77,SSW,197,5.8,6.3,36,0.00,,---,0.04,VWS V14.01,2013-04-01 19:19:00,
2013-04-01 15:24:00,48.0,23.0,29.77,SW,218,8.7,12.8,37,0.00,,---,0.04,VWS V14.01,2013-04-01 19:24:00,
2013-04-01 15:29:00,48.2,23.2,29.77,South,170,8.1,8.1,37,0.00,,---,0.04,VWS V14.01,2013-04-01 19:29:00,
2013-04-01 15:34:00,48.4,23.3,29.77,SW,218,5.4,7.6,37,0.00,,---,0.04,VWS V14.01,2013-04-01 19:34:00,
2013-04-01 15:39:00,48.4,23.3,29.77,SW,221,5.4,5.4,37,0.00,,---,0.04,VWS V14.01,2013-04-01 19:39:00,
2013-04-01 15:44:00,48.2,23.2,29.77,WSW,250,4.0,5.4,37,0.00,,---,0.04,VWS V14.01,2013-04-01 19:44:00,
2013-04-01 15:49:00,48.0,23.0,29.77,SW,217,5.4,5.4,37,0.00,,---,0.04,VWS V14.01,2013-04-01 19:49:00,
2013-04-01 15:54:00,47.7,22.7,29.77,West,265,3.6,3.6,37,0.00,,---,0.04,VWS V14.01,2013-04-01 19:54:00,
2013-04-01 15:59:00,47.5,22.5,29.77,WSW,247,3.6,7.6,37,0.00,,---,0.04,VWS V14.01,2013-04-01 19:59:00,
2013-04-01 16:04:00,47.5,22.5,29.77,SW,223,8.7,12.8,37,0.00,,---,0.04,VWS V14.01,2013-04-01 20:04:00,
2013-04-01 16:09:00,47.5,22.5,29.77,SW,223,8.1,8.1,37,0.00,,---,0.04,VWS V14.01,2013-04-01 20:09:00,
2013-04-01 16:14:00,47.1,22.2,29.77,SE,144,4.0,8.3,37,0.00,,---,0.04,VWS V14.01,2013-04-01 20:14:00,
2013-04-01 16:19:00,46.8,21.9,29.77,ESE,114,5.8,6.7,37,0.00,,---,0.04,VWS V14.01,2013-04-01 20:19:00,
2013-04-01 16:24:00,46.6,21.7,29.77,SSW,198,8.1,10.5,37,0.00,,---,0.04,VWS V14.01,2013-04-01 20:24:00,
2013-04-01 16:30:00,46.6,21.7,29.77,SSE,150,3.6,5.8,37,0.00,,---,0.04,VWS V14.01,2013-04-01 20:30:00,
2013-04-01 16:35:00,46.4,22.2,29.77,SSE,147,4.0,4.0,38,0.00,,---,0.04,VWS V14.01,2013-04-01 20:35:00,
2013-04-01 16:40:00,46.6,23.0,29.77,South,169,6.3,6.3,39,0.00,,---,0.04,VWS V14.01,2013-04-01 20:40:00,
2013-04-01 16:45:00,46.4,22.2,29.80,SW,229,4.0,4.0,38,0.00,,---,0.04,VWS V14.01,2013-04-01 20:45:00,
2013-04-01 16:50:00,45.9,21.7,29.80,SW,227,6.3,7.6,38,0.00,,---,0.04,VWS V14.01,2013-04-01 20:50:00,
2013-04-01 16:55:00,45.1,21.1,29.80,South,189,3.6,5.8,38,0.00,,---,0.04,VWS V14.01,2013-04-01 20:55:00,
2013-04-01 17:00:00,44.6,20.6,29.80,SSW,193,4.9,6.3,38,0.00,,---,0.04,VWS V14.01,2013-04-01 21:00:00,
2013-04-01 17:05:00,43.9,19.9,29.80,SW,227,4.9,8.1,38,0.00,,---,0.04,VWS V14.01,2013-04-01 21:05:00,
2013-04-01 17:10:00,43.2,19.3,29.80,SW,229,10.1,12.8,38,0.00,,---,0.04,VWS V14.01,2013-04-01 21:10:00,
2013-04-01 17:15:00,43.0,19.7,29.80,SSW,204,5.4,12.8,39,0.00,,---,0.04,VWS V14.01,2013-04-01 21:15:00,
2013-04-01 17:20:00,43.0,19.1,29.80,SW,232,6.3,8.3,38,0.00,,---,0.04,VWS V14.01,2013-04-01 21:20:00,
2013-04-01 17:25:00,42.6,19.4,29.80,South,189,4.9,8.3,39,0.00,,---,0.04,VWS V14.01,2013-04-01 21:25:00,
2013-04-01 17:30:00,42.3,19.1,29.80,SSW,195,4.9,4.9,39,0.00,,---,0.04,VWS V14.01,2013-04-01 21:30:00,
2013-04-01 17:35:00,42.1,18.9,29.80,SW,230,3.1,5.8,39,0.00,,---,0.04,VWS V14.01,2013-04-01 21:35:00,
2013-04-01 17:40:00,41.7,18.6,29.80,SW,223,4.5,8.1,39,0.00,,---,0.04,VWS V14.01,2013-04-01 21:40:00,
2013-04-01 17:45:00,41.0,18.0,29.83,East,91,4.0,4.0,39,0.00,,---,0.04,VWS V14.01,2013-04-01 21:45:00,
2013-04-01 17:50:00,40.3,17.9,29.83,SW,234,10.1,10.1,40,0.00,,---,0.04,VWS V14.01,2013-04-01 21:50:00,
2013-04-01 17:55:00,39.6,17.2,29.83,South,181,8.7,14.5,40,0.00,,---,0.04,VWS V14.01,2013-04-01 21:55:00,
2013-04-01 18:00:00,39.2,16.9,29.83,SE,140,2.7,8.3,40,0.00,,---,0.04,VWS V14.01,2013-04-01 22:00:00,
2013-04-01 18:05:00,39.0,16.8,29.83,SW,226,8.3,8.3,40,0.00,,---,0.04,VWS V14.01,2013-04-01 22:05:00,
2013-04-01 18:10:00,39.0,16.8,29.83,WSW,238,8.3,8.3,40,0.00,,---,0.04,VWS V14.01,2013-04-01 22:10:00,
2013-04-01 18:15:00,39.2,16.9,29.83,SSE,164,5.4,8.7,40,0.00,,---,0.04,VWS V14.01,2013-04-01 22:15:00,
2013-04-01 18:20:00,39.7,16.8,29.83,SSW,206,4.0,4.0,39,0.00,,---,0.04,VWS V14.01,2013-04-01 22:20:00,
2013-04-01 18:25:00,40.6,17.6,29.83,SW,223,6.3,6.3,39,0.00,,---,0.04,VWS V14.01,2013-04-01 22:25:00,
2013-04-01 18:30:00,41.4,17.7,29.83,West,271,5.8,5.8,38,0.00,,---,0.04,VWS V14.01,2013-04-01 22:30:00,
2013-04-01 18:35:00,41.9,16.9,29.83,SSW,201,8.3,8.3,36,0.00,,---,0.04,VWS V14.01,2013-04-01 22:35:00,
2013-04-01 18:40:00,41.9,15.6,29.83,SW,218,6.3,6.3,34,0.00,,---,0.04,VWS V14.01,2013-04-01 22:40:00,
2013-04-01 18:45:00,41.4,15.1,29.83,South,178,4.0,8.1,34,0.00,,---,0.04,VWS V14.01,2013-04-01 22:45:00,
2013-04-01 18:50:00,40.6,14.5,29.83,SSE,158,6.3,6.3,34,0.00,,---,0.04,VWS V14.01,2013-04-01 22:50:00,
2013-04-01 18:55:00,40.3,14.2,29.83,SSW,210,4.0,8.1,34,0.00,,---,0.04,VWS V14.01,2013-04-01 22:55:00,
2013-04-01 19:00:00,39.9,14.5,29.83,SSW,203,4.0,8.1,35,0.00,,---,0.04,VWS V14.01,2013-04-01 23:00:00,
2013-04-01 19:05:00,39.7,14.3,29.83,SSW,200,4.0,5.4,35,0.00,,---,0.04,VWS V14.01,2013-04-01 23:05:00,
2013-04-01 19:10:00,39.7,15.0,29.83,SSW,207,4.0,7.2,36,0.00,,---,0.04,VWS V14.01,2013-04-01 23:10:00,
2013-04-01 19:15:00,39.6,15.4,29.83,SW,226,5.8,8.7,37,0.00,,---,0.04,VWS V14.01,2013-04-01 23:15:00,
2013-04-01 19:20:00,39.4,15.3,29.83,SSW,209,4.0,5.8,37,0.00,,---,0.04,VWS V14.01,2013-04-01 23:20:00,
2013-04-01 19:26:00,39.2,15.7,29.83,SSW,205,5.4,5.4,38,0.00,,---,0.04,VWS V14.01,2013-04-01 23:26:00,
2013-04-01 19:31:00,38.8,16.0,29.86,SW,215,8.3,8.3,39,0.00,,---,0.04,VWS V14.01,2013-04-01 23:31:00,
2013-04-01 19:36:00,38.5,15.1,29.86,SW,224,10.1,10.5,38,0.00,,---,0.04,VWS V14.01,2013-04-01 23:36:00,
2013-04-01 19:41:00,38.3,15.5,29.86,SW,232,4.0,4.0,39,0.00,,---,0.04,VWS V14.01,2013-04-01 23:41:00,
2013-04-01 19:46:00,38.1,15.4,29.86,SSW,213,3.1,5.4,39,0.00,,---,0.04,VWS V14.01,2013-04-01 23:46:00,
2013-04-01 19:51:00,37.9,15.2,29.86,South,179,7.6,8.7,39,0.00,,---,0.04,VWS V14.01,2013-04-01 23:51:00,
2013-04-01 19:56:00,37.8,15.0,29.86,SW,217,4.0,5.4,39,0.00,,---,0.04,VWS V14.01,2013-04-01 23:56:00,
2013-04-01 20:01:00,37.6,14.9,29.86,SW,230,5.4,6.7,39,0.00,,---,0.04,VWS V14.01,2013-04-02 00:01:00,
2013-04-01 20:06:00,37.4,14.7,29.86,SW,225,6.3,6.3,39,0.00,,---,0.04,VWS V14.01,2013-04-02 00:06:00,
2013-04-01 20:11:00,37.0,15.0,29.86,SW,222,2.7,3.6,40,0.00,,---,0.04,VWS V14.01,2013-04-02 00:11:00,
2013-04-01 20:16:00,36.9,14.8,29.86,SW,218,8.1,8.3,40,0.00,,---,0.04,VWS V14.01,2013-04-02 00:16:00,
2013-04-01 20:21:00,36.7,14.6,29.86,SSW,208,5.4,7.6,40,0.00,,---,0.04,VWS V14.01,2013-04-02 00:21:00,
2013-04-01 20:26:00,36.3,14.3,29.86,SW,225,8.1,8.1,40,0.00,,---,0.04,VWS V14.01,2013-04-02 00:26:00,
2013-04-01 20:31:00,36.3,14.3,29.86,SW,226,3.1,4.9,40,0.00,,---,0.04,VWS V14.01,2013-04-02 00:31:00,
2013-04-01 20:36:00,36.3,14.3,29.86,WSW,237,0.0,2.7,40,0.00,,---,0.04,VWS V14.01,2013-04-02 00:36:00,
2013-04-01 20:41:00,36.0,14.0,29.86,ESE,113,0.0,4.0,40,0.00,,---,0.04,VWS V14.01,2013-04-02 00:41:00,
2013-04-01 20:46:00,35.6,14.2,29.86,South,184,0.0,0.0,41,0.00,,---,0.04,VWS V14.01,2013-04-02 00:46:00,
2013-04-01 20:51:00,35.2,14.5,29.86,SE,142,0.0,0.0,42,0.00,,---,0.04,VWS V14.01,2013-04-02 00:51:00,
2013-04-01 20:56:00,35.4,14.1,29.86,SW,232,0.0,3.1,41,0.00,,---,0.04,VWS V14.01,2013-04-02 00:56:00,
2013-04-01 21:01:00,35.4,14.1,29.89,NNW,342,0.0,0.0,41,0.00,,---,0.04,VWS V14.01,2013-04-02 01:01:00,
2013-04-01 21:06:00,35.4,14.6,29.89,South,184,0.0,0.0,42,0.00,,---,0.04,VWS V14.01,2013-04-02 01:06:00,
2013-04-01 21:11:00,35.2,14.5,29.89,SSE,148,0.0,2.2,42,0.00,,---,0.04,VWS V14.01,2013-04-02 01:11:00,
2013-04-01 21:16:00,35.1,14.3,29.89,SSE,160,2.2,5.8,42,0.00,,---,0.04,VWS V14.01,2013-04-02 01:16:00,
2013-04-01 21:21:00,35.1,14.3,29.89,SW,225,4.9,8.1,42,0.00,,---,0.04,VWS V14.01,2013-04-02 01:21:00,
2013-04-01 21:26:00,35.4,14.1,29.89,SSW,209,4.0,4.0,41,0.00,,---,0.04,VWS V14.01,2013-04-02 01:26:00,
2013-04-01 21:31:00,35.2,13.9,29.89,SSW,196,5.4,5.4,41,0.00,,---,0.04,VWS V14.01,2013-04-02 01:31:00,
2013-04-01 21:36:00,35.2,13.9,29.89,South,179,6.3,6.3,41,0.00,,---,0.04,VWS V14.01,2013-04-02 01:36:00,
2013-04-01 21:41:00,35.4,14.1,29.89,SW,231,6.3,6.3,41,0.00,,---,0.04,VWS V14.01,2013-04-02 01:41:00,
2013-04-01 21:46:00,35.2,13.9,29.89,SSE,165,3.6,4.0,41,0.00,,---,0.04,VWS V14.01,2013-04-02 01:46:00,
2013-04-01 21:51:00,35.1,13.8,29.89,SW,229,3.1,8.3,41,0.00,,---,0.04,VWS V14.01,2013-04-02 01:51:00,
2013-04-01 21:56:00,34.9,13.6,29.89,SW,215,4.9,5.8,41,0.00,,---,0.04,VWS V14.01,2013-04-02 01:56:00,
2013-04-01 22:01:00,34.9,13.6,29.89,South,171,2.7,5.8,41,0.00,,---,0.04,VWS V14.01,2013-04-02 02:01:00,
2013-04-01 22:06:00,34.7,13.4,29.89,South,174,0.0,0.0,41,0.00,,---,0.04,VWS V14.01,2013-04-02 02:06:00,
2013-04-01 22:11:00,34.3,13.1,29.89,ESE,109,0.0,0.0,41,0.00,,---,0.04,VWS V14.01,2013-04-02 02:11:00,
2013-04-01 22:16:00,33.8,13.1,29.89,ESE,109,0.0,0.0,42,0.00,,---,0.04,VWS V14.01,2013-04-02 02:16:00,
2013-04-01 22:21:00,33.3,13.2,29.89,East,83,0.0,0.0,43,0.00,,---,0.04,VWS V14.01,2013-04-02 02:21:00,
2013-04-01 22:26:00,33.1,13.0,29.89,West,279,3.6,3.6,43,0.00,,---,0.04,VWS V14.01,2013-04-02 02:26:00,
2013-04-01 22:31:00,33.1,13.6,29.89,NE,42,2.2,2.7,44,0.00,,---,0.04,VWS V14.01,2013-04-02 02:31:00,
2013-04-01 22:36:00,32.7,13.2,29.89,NE,39,3.1,3.1,44,0.00,,---,0.04,VWS V14.01,2013-04-02 02:36:00,
2013-04-01 22:41:00,32.7,13.2,29.89,NE,39,0.0,2.2,44,0.00,,---,0.04,VWS V14.01,2013-04-02 02:41:00,
2013-04-01 22:46:00,32.7,12.7,29.89,NNE,15,0.0,0.0,43,0.00,,---,0.04,VWS V14.01,2013-04-02 02:46:00,
2013-04-01 22:51:00,33.1,13.0,29.89,NNE,15,0.0,0.0,43,0.00,,---,0.04,VWS V14.01,2013-04-02 02:51:00,
2013-04-01 22:56:00,32.9,12.9,29.89,NE,45,2.7,3.1,43,0.00,,---,0.04,VWS V14.01,2013-04-02 02:56:00,
2013-04-01 23:01:00,32.7,12.7,29.89,NE,46,0.0,0.0,43,0.00,,---,0.04,VWS V14.01,2013-04-02 03:01:00,
2013-04-01 23:06:00,32.5,12.5,29.89,NE,46,0.0,0.0,43,0.00,,---,0.04,VWS V14.01,2013-04-02 03:06:00,
2013-04-01 23:11:00,32.4,12.4,29.89,NE,51,0.0,0.0,43,0.00,,---,0.04,VWS V14.01,2013-04-02 03:11:00,
2013-04-01 23:16:00,32.5,12.5,29.89,East,97,3.1,4.9,43,0.00,,---,0.04,VWS V14.01,2013-04-02 03:16:00,
2013-04-01 23:21:00,32.9,12.9,29.89,East,89,0.0,0.0,43,0.00,,---,0.04,VWS V14.01,2013-04-02 03:21:00,
2013-04-01 23:26:00,32.7,12.7,29.89,NE,49,0.0,0.0,43,0.00,,---,0.04,VWS V14.01,2013-04-02 03:26:00,
2013-04-01 23:31:00,32.4,12.4,29.89,NE,56,0.0,0.0,43,0.00,,---,0.04,VWS V14.01,2013-04-02 03:31:00,
2013-04-01 23:36:00,32.4,11.9,29.89,ENE,71,0.0,2.7,42,0.00,,---,0.04,VWS V14.01,2013-04-02 03:36:00,
2013-04-01 23:41:00,32.5,12.0,29.89,ENE,77,0.0,2.7,42,0.00,,---,0.04,VWS V14.01,2013-04-02 03:41:00,
2013-04-01 23:46:00,32.4,12.4,29.89,NE,51,0.0,0.0,43,0.00,,---,0.04,VWS V14.01,2013-04-02 03:46:00,
2013-04-01 23:51:00,32.2,11.7,29.89,NE,44,0.0,2.2,42,0.00,,---,0.04,VWS V14.01,2013-04-02 03:51:00,
2013-04-01 23:56:00,32.0,12.1,29.89,NE,49,0.0,0.0,43,0.00,,---,0.04,VWS V14.01,2013-04-02 03:56:00,